User: anonymous   Login
Location: Theydon Bois
(51.6750°N, 0.1050°E)
Time: 14:10:00
(UTC+00:00)
Language:

Cosmos 1939 Rocket - Orbit

View from above orbital plane
View from above orbital plane
View from above satellite
View from above satellite

Ground track
Ground track

The orbit data is extracted from the following two-line orbital elements,

1 19046U 88032B   18054.56859565 -.00000361 +00000-0 -22337-4 0  9991
2 19046 097.4972 098.7453 0036491 193.7486 166.2749 15.02388022610099
Epoch (UTC): 23 February 2018 13:38:46
Eccentricity: 0.0036491
inclination: 97.4972°
perigee height: 534 km
apogee height: 585 km
right ascension of ascending node: 98.7453°
argument of perigee: 193.7486°
revolutions per day: 15.02388022
mean anomaly at epoch: 166.2749°
orbit number at epoch: 61009

The dashed part of the orbit path shows where the satellite is in the earth's shadow,  

DLR